TimeEET,TemperatureF,Dew PointF,Humidity,Sea Level PressureIn,VisibilityMPH,Wind Direction,Wind SpeedMPH,Gust SpeedMPH,PrecipitationIn,Events,Conditions,WindDirDegrees,DateUTC
12:20 AM,50.0,48.2,94,30.09,6.2,Calm,Calm,-,N/A,,Mostly Cloudy,0,2014-01-01 22:20:00
12:50 AM,48.2,48.2,100,30.09,6.2,Calm,Calm,-,N/A,,Mostly Cloudy,0,2014-01-01 22:50:00
1:20 AM,48.2,48.2,100,30.09,6.2,WSW,2.3,-,N/A,,Mostly Cloudy,250,2014-01-01 23:20:00
1:50 AM,46.4,46.4,100,30.09,6.2,Calm,Calm,-,N/A,,Scattered Clouds,0,2014-01-01 23:50:00
2:00 AM,47,46,97,30.10,6,Calm,Calm,,,,Partly Cloudy,,2014-01-02 00:00:00
2:20 AM,46.4,46.4,100,30.09,6.2,Variable,3.5,-,N/A,,Scattered Clouds,0,2014-01-02 00:20:00
2:50 AM,46.4,46.4,100,30.09,6.2,Calm,Calm,-,N/A,,Scattered Clouds,0,2014-01-02 00:50:00
3:20 AM,46.4,46.4,100,30.09,6.2,Calm,Calm,-,N/A,,Scattered Clouds,0,2014-01-02 01:20:00
3:50 AM,44.6,44.6,100,30.09,6.2,WNW,2.3,-,N/A,,Scattered Clouds,300,2014-01-02 01:50:00
4:20 AM,44.6,44.6,100,30.09,6.2,WNW,2.3,-,N/A,,Scattered Clouds,300,2014-01-02 02:20:00
4:50 AM,44.6,44.6,100,30.09,4.3,West,3.5,-,N/A,,Scattered Clouds,280,2014-01-02 02:50:00
5:00 AM,44,44,99,30.11,4,West,3.5,,,,Mist,280,2014-01-02 03:00:00
5:20 AM,44.6,44.6,100,30.09,5.6,Calm,Calm,-,N/A,,Scattered Clouds,0,2014-01-02 03:20:00
5:50 AM,42.8,42.8,100,30.12,5.6,West,3.5,-,N/A,,Scattered Clouds,280,2014-01-02 03:50:00
6:20 AM,42.8,42.8,100,30.12,5.6,Calm,Calm,-,N/A,,Scattered Clouds,0,2014-01-02 04:20:00
6:50 AM,42.8,42.8,100,30.09,6.2,Calm,Calm,-,N/A,,Mostly Cloudy,0,2014-01-02 04:50:00
7:20 AM,42.8,42.8,100,30.09,6.2,Calm,Calm,-,N/A,,Mostly Cloudy,0,2014-01-02 05:20:00
7:50 AM,42.8,42.8,100,30.09,6.2,Calm,Calm,-,N/A,,Scattered Clouds,0,2014-01-02 05:50:00
8:00 AM,44,44,97,30.11,6,Calm,Calm,,,,Scattered Clouds,,2014-01-02 06:00:00
8:20 AM,42.8,42.8,100,30.09,6.2,Calm,Calm,-,N/A,,Scattered Clouds,0,2014-01-02 06:20:00
8:50 AM,46.4,46.4,100,30.09,6.2,Calm,Calm,-,N/A,,Scattered Clouds,0,2014-01-02 06:50:00
9:20 AM,48.2,46.4,93,30.09,6.2,Calm,Calm,-,N/A,,Scattered Clouds,0,2014-01-02 07:20:00
9:50 AM,50.0,48.2,94,30.09,6.2,Calm,Calm,-,N/A,,Partly Cloudy,0,2014-01-02 07:50:00
10:20 AM,50.0,48.2,94,30.09,6.2,Calm,Calm,-,N/A,,Partly Cloudy,0,2014-01-02 08:20:00
10:50 AM,55.4,51.8,88,30.12,6.2,Calm,Calm,-,N/A,,Partly Cloudy,0,2014-01-02 08:50:00
11:00 AM,55,51,83,30.14,12,Calm,Calm,,,,Scattered Clouds,,2014-01-02 09:00:00
11:20 AM,55.4,51.8,88,30.12,6.2,Calm,Calm,-,N/A,,Partly Cloudy,0,2014-01-02 09:20:00
11:50 AM,55.4,51.8,88,30.12,6.2,Calm,Calm,-,N/A,,Scattered Clouds,0,2014-01-02 09:50:00
12:20 PM,57.2,51.8,82,30.12,6.2,ESE,5.8,-,N/A,,Scattered Clouds,110,2014-01-02 10:20:00
12:50 PM,57.2,51.8,82,30.12,6.2,East,6.9,-,N/A,,Scattered Clouds,100,2014-01-02 10:50:00
1:20 PM,57.2,51.8,82,30.12,6.2,SE,5.8,-,N/A,,Scattered Clouds,140,2014-01-02 11:20:00
1:50 PM,59.0,51.8,77,30.09,6.2,SSE,4.6,-,N/A,,Mostly Cloudy,150,2014-01-02 11:50:00
2:00 PM,59,51,68,30.10,6,SSE,4.6,,,,Partly Cloudy,150,2014-01-02 12:00:00
2:20 PM,59.0,51.8,77,30.09,6.2,SSE,4.6,-,N/A,,Mostly Cloudy,160,2014-01-02 12:20:00
2:50 PM,60.8,51.8,72,30.09,6.2,ESE,3.5,-,N/A,,Mostly Cloudy,120,2014-01-02 12:50:00
3:20 PM,60.8,51.8,72,30.09,6.2,SSE,2.3,-,N/A,,Mostly Cloudy,160,2014-01-02 13:20:00
3:50 PM,57.2,51.8,82,30.09,6.2,Calm,Calm,-,N/A,,Mostly Cloudy,0,2014-01-02 13:50:00
4:20 PM,57.2,51.8,82,30.09,6.2,Calm,Calm,-,N/A,,Mostly Cloudy,0,2014-01-02 14:20:00
4:50 PM,57.2,51.8,82,30.09,6.2,SSW,2.3,-,N/A,,Mostly Cloudy,210,2014-01-02 14:50:00
5:00 PM,57,52,79,30.10,12,SSW,2.3,,,,Partly Cloudy,210,2014-01-02 15:00:00
5:20 PM,57.2,51.8,82,30.09,6.2,Calm,Calm,-,N/A,,Mostly Cloudy,0,2014-01-02 15:20:00
5:50 PM,53.6,51.8,94,30.09,6.2,Calm,Calm,-,N/A,,Mostly Cloudy,0,2014-01-02 15:50:00
6:20 PM,53.6,51.8,94,30.09,6.2,Calm,Calm,-,N/A,,Mostly Cloudy,0,2014-01-02 16:20:00
6:50 PM,53.6,51.8,94,30.09,6.2,Calm,Calm,-,N/A,,Mostly Cloudy,0,2014-01-02 16:50:00
7:20 PM,51.8,51.8,100,30.09,6.2,Calm,Calm,-,N/A,,Scattered Clouds,0,2014-01-02 17:20:00
7:50 PM,50.0,50.0,100,30.09,6.2,Calm,Calm,-,N/A,,Scattered Clouds,0,2014-01-02 17:50:00
8:00 PM,50,50,98,30.12,6,Calm,Calm,,,,Scattered Clouds,,2014-01-02 18:00:00
8:20 PM,50.0,50.0,100,30.12,6.2,Calm,Calm,-,N/A,,Scattered Clouds,0,2014-01-02 18:20:00
8:50 PM,48.2,48.2,100,30.12,6.2,Calm,Calm,-,N/A,,Scattered Clouds,0,2014-01-02 18:50:00
9:20 PM,48.2,48.2,100,30.12,-9999.0,Calm,Calm,-,N/A,,Clear,0,2014-01-02 19:20:00
9:50 PM,48.2,46.4,93,30.12,6.2,Calm,Calm,-,N/A,,Partly Cloudy,0,2014-01-02 19:50:00
10:20 PM,48.2,46.4,93,30.12,6.2,Calm,Calm,-,N/A,,Partly Cloudy,0,2014-01-02 20:20:00
10:50 PM,48.2,48.2,100,30.12,6.2,Calm,Calm,-,N/A,,Scattered Clouds,0,2014-01-02 20:50:00
11:00 PM,48,47,97,30.14,6,Calm,Calm,,,,Mostly Cloudy,,2014-01-02 21:00:00
11:20 PM,48.2,48.2,100,30.12,6.2,Calm,Calm,-,N/A,,Mostly Cloudy,0,2014-01-02 21:20:00
11:50 PM,48.2,48.2,100,30.12,6.2,Calm,Calm,-,N/A,,Light Drizzle,0,2014-01-02 21:50:00